Weather History for Marco Island Airport, FL

Change the Weather History Date:

Thursday, December 12, 2013

  Actual Average (KAPF) Record (KAPF)
Temperature  
Mean Temperature 70 °F 67 °F  
Max Temperature 80 °F 77 °F 87 °F (1964)
Min Temperature 59 °F 58 °F 30 °F (1957)
Degree Days  
Heating Degree Days 0 2  
Month to date heating degree days 19  
Since 1 July heating degree days 33  
Cooling Degree Days 4 4  
Month to date cooling degree days 58  
Year to date cooling degree days 3877  
Growing Degree Days 20 (Base 50)    
Moisture  
Dew Point -    
Average Humidity    
Maximum Humidity    
Minimum Humidity    
Precipitation  
Precipitation 0.01 in 0.05 in 1.47 in (1967)
Month to date precipitation 0.56  
Year to date precipitation 51.00  
Snow  
Snow 0.00 in - - ()
Month to date snowfall  
Since 1 July snowfall  
Snow Depth -    
Sea Level Pressure  
Sea Level Pressure 30.19 in    
Wind  
Wind Speed 7 mph (NNE)    
Max Wind Speed 16 mph    
Max Gust Speed 21 mph    
Visibility 10 miles    
Events      
T = Trace of Precipitation, MM = Missing Value Source: NWS Daily Summary

Daily Weather History Graph

Daily Weather History Graph

Search for Another Location

Airport:

Trip Planner

Search our weather history database for the weather conditions in past years. The results will help you decide how hot, cold, wet, or windy it might be!

Date:

Astronomy

Dec. 12, 2013 Rise Set
Actual Time 7:04 AM EST 5:36 PM EST
Civil Twilight 6:39 AM EST 6:01 PM EST
Nautical Twilight 6:10 AM EST 6:30 PM EST
Astronomical Twilight 5:42 AM EST 6:58 PM EST
Moon 2:25 PM EST (12/12) 2:45 AM EST (12/12)
Length of Visible Light 11h 22m
Length of Day
10h 32m
Waxing Gibbous, 80% of the Moon is Illuminated
Dec 12
Waxing Gibbous
Dec 17
Full
Dec 25
Last Quarter
Jan 1
New
Jan 7
First Quarter

Hourly Weather History & Observations

Time (EST) Temp. Dew Point Humidity Pressure Visibility Wind Dir Wind Speed Gust Speed Precip Events Conditions
12:15 AM 71.6 °F - N/A% 30.17 in 10.0 mi Calm Calm - N/A   Mostly Cloudy
12:35 AM 71.6 °F - N/A% 30.17 in 10.0 mi NE 3.5 mph - N/A   Scattered Clouds
12:55 AM 71.6 °F - N/A% 30.16 in 10.0 mi North 3.5 mph - N/A   Scattered Clouds
1:15 AM 69.8 °F - N/A% 30.16 in 10.0 mi NNW 3.5 mph - N/A   Mostly Cloudy
1:35 AM 69.8 °F - N/A% 30.16 in 10.0 mi North 3.5 mph - N/A   Scattered Clouds
1:55 AM 69.8 °F - N/A% 30.16 in 10.0 mi North 4.6 mph - N/A   Scattered Clouds
2:15 AM 69.8 °F - N/A% 30.16 in 10.0 mi North 4.6 mph - N/A   Mostly Cloudy
2:35 AM 69.8 °F - N/A% 30.16 in 10.0 mi North 3.5 mph - N/A   Overcast
2:55 AM 69.8 °F - N/A% 30.16 in 10.0 mi North 3.5 mph - N/A   Mostly Cloudy
3:15 AM 69.8 °F - N/A% 30.15 in 10.0 mi North 4.6 mph - N/A   Mostly Cloudy
3:35 AM 69.8 °F - N/A% 30.15 in 10.0 mi North 4.6 mph - N/A   Mostly Cloudy
3:55 AM 69.8 °F - N/A% 30.15 in 10.0 mi NNE 5.8 mph - N/A   Mostly Cloudy
4:15 AM 69.8 °F - N/A% 30.15 in 10.0 mi NNE 3.5 mph - N/A   Clear
4:35 AM 69.8 °F - N/A% 30.15 in 10.0 mi North 3.5 mph - N/A   Clear
4:55 AM 69.8 °F - N/A% 30.15 in 10.0 mi North 4.6 mph - N/A   Clear
5:15 AM 68.0 °F - N/A% 30.15 in 10.0 mi NNE 5.8 mph - N/A   Clear
5:35 AM 68.0 °F - N/A% 30.15 in 10.0 mi NNE 4.6 mph - N/A   Clear
5:55 AM 68.0 °F - N/A% 30.15 in 10.0 mi NNE 4.6 mph - N/A   Clear
6:15 AM 68.0 °F - N/A% 30.16 in 10.0 mi NNE 5.8 mph - N/A   Clear
6:35 AM 68.0 °F - N/A% 30.16 in 10.0 mi NNE 4.6 mph - N/A   Clear
6:55 AM 66.2 °F - N/A% 30.17 in 10.0 mi NE 4.6 mph - N/A   Clear
7:15 AM 66.2 °F - N/A% 30.18 in 8.0 mi North 5.8 mph - N/A   Clear
7:35 AM 66.2 °F - N/A% 30.20 in 9.0 mi NNE 5.8 mph - N/A   Clear
7:55 AM 68.0 °F - N/A% 30.20 in 8.0 mi North 6.9 mph - N/A   Clear
8:15 AM 68.0 °F - N/A% 30.21 in 7.0 mi NNE 8.1 mph - N/A   Mostly Cloudy
8:35 AM 68.0 °F - N/A% 30.22 in 7.0 mi NNE 6.9 mph - N/A   Overcast
8:55 AM 69.8 °F - N/A% 30.23 in 8.0 mi NNE 6.9 mph - N/A   Mostly Cloudy
9:15 AM 69.8 °F - N/A% 30.24 in 9.0 mi NE 9.2 mph - N/A   Overcast
9:35 AM 71.6 °F - N/A% 30.25 in 10.0 mi NNE 11.5 mph - N/A   Overcast
9:55 AM 71.6 °F - N/A% 30.25 in 10.0 mi NE 10.4 mph - N/A   Overcast
10:15 AM 71.6 °F - N/A% 30.24 in 10.0 mi NNE 12.7 mph - 0.01 in   Overcast
10:35 AM 71.6 °F - N/A% 30.24 in 10.0 mi NE 8.1 mph - 0.01 in   Overcast
10:55 AM 73.4 °F - N/A% 30.23 in 10.0 mi NE 11.5 mph - 0.01 in   Overcast
11:15 AM 73.4 °F - N/A% 30.23 in 10.0 mi NE 9.2 mph - N/A   Overcast
11:35 AM 75.2 °F - N/A% 30.23 in 10.0 mi NE 11.5 mph - N/A   Overcast
11:55 AM 77.0 °F - N/A% 30.22 in 10.0 mi NE 10.4 mph - N/A   Mostly Cloudy
12:15 PM 78.8 °F - N/A% 30.21 in 10.0 mi NE 8.1 mph - N/A   Mostly Cloudy
12:35 PM 80.6 °F - N/A% 30.20 in 10.0 mi NE 12.7 mph - N/A   Scattered Clouds
12:55 PM 80.6 °F - N/A% 30.18 in 10.0 mi NE 9.2 mph - N/A   Partly Cloudy
1:15 PM 78.8 °F - N/A% 30.17 in 10.0 mi ENE 9.2 mph - N/A   Clear
1:35 PM 78.8 °F - N/A% 30.16 in 10.0 mi NE 9.2 mph - N/A   Clear
1:55 PM 77.0 °F - N/A% 30.16 in 10.0 mi NE 12.7 mph - N/A   Mostly Cloudy
2:15 PM 75.2 °F - N/A% 30.16 in 10.0 mi NNE 12.7 mph - N/A   Overcast
2:35 PM 73.4 °F - N/A% 30.16 in 10.0 mi NNE 12.7 mph 18.4 mph N/A   Overcast
2:55 PM 71.6 °F - N/A% 30.15 in 10.0 mi NNE 12.7 mph 18.4 mph N/A   Overcast
3:15 PM 71.6 °F - N/A% 30.16 in 9.0 mi NNE 12.7 mph - N/A   Overcast
3:35 PM 69.8 °F - N/A% 30.15 in 10.0 mi NNE 16.1 mph 20.7 mph N/A   Overcast
3:55 PM 69.8 °F - N/A% 30.15 in 10.0 mi NNE 9.2 mph 17.3 mph N/A   Overcast
4:15 PM 69.8 °F - N/A% 30.16 in 10.0 mi NE 13.8 mph - N/A   Overcast
4:35 PM 69.8 °F - N/A% 30.16 in 10.0 mi NNE 12.7 mph - N/A   Overcast
4:55 PM 69.8 °F - N/A% 30.16 in 10.0 mi NE 12.7 mph - N/A   Overcast
5:15 PM 69.8 °F - N/A% 30.17 in 10.0 mi NNE 9.2 mph - N/A   Scattered Clouds
5:35 PM 69.8 °F - N/A% 30.17 in 10.0 mi NE 5.8 mph - N/A   Clear
5:55 PM 68.0 °F - N/A% 30.17 in 10.0 mi NE 4.6 mph - N/A   Clear
6:15 PM 66.2 °F - N/A% 30.18 in 10.0 mi NE 5.8 mph - N/A   Clear
6:35 PM 66.2 °F - N/A% 30.18 in 10.0 mi NNE 4.6 mph - N/A   Clear
6:55 PM 64.4 °F - N/A% 30.19 in 10.0 mi NE 6.9 mph - N/A   Clear
7:15 PM 64.4 °F - N/A% 30.20 in 10.0 mi NE 10.4 mph - N/A   Clear
7:35 PM 64.4 °F - N/A% 30.20 in 10.0 mi NE 9.2 mph - N/A   Clear
7:55 PM 64.4 °F - N/A% 30.21 in 10.0 mi NE 13.8 mph - N/A   Clear
8:15 PM 64.4 °F - N/A% 30.21 in 10.0 mi NE 13.8 mph - N/A   Clear
8:35 PM 64.4 °F - N/A% 30.22 in 10.0 mi NNE 12.7 mph 18.4 mph N/A   Clear
8:55 PM 62.6 °F - N/A% 30.22 in 10.0 mi NNE 11.5 mph 18.4 mph N/A   Clear
9:15 PM 62.6 °F - N/A% 30.22 in 10.0 mi NNE 11.5 mph - N/A   Clear
9:35 PM 62.6 °F - N/A% 30.22 in 10.0 mi NE 12.7 mph - N/A   Clear
9:55 PM 60.8 °F - N/A% 30.23 in 10.0 mi NNE 11.5 mph 18.4 mph N/A   Clear
10:15 PM 60.8 °F - N/A% 30.23 in 10.0 mi NNE 15.0 mph 20.7 mph N/A   Clear
10:35 PM 60.8 °F - N/A% 30.23 in 10.0 mi NNE 12.7 mph - N/A   Clear
10:55 PM 60.8 °F - N/A% 30.22 in 10.0 mi NNE 11.5 mph 18.4 mph N/A   Clear
11:15 PM 59.0 °F - N/A% 30.22 in 10.0 mi NNE 13.8 mph 20.7 mph N/A   Clear
11:35 PM 59.0 °F - N/A% 30.22 in 10.0 mi NNE 12.7 mph 19.6 mph N/A   Clear
11:55 PM 59.0 °F - N/A% 30.21 in 10.0 mi NNE 13.8 mph 19.6 mph N/A   Clear